TimeSAST,TemperatureF,Dew PointF,Humidity,Sea Level PressureIn,VisibilityMPH,Wind Direction,Wind SpeedMPH,Gust SpeedMPH,PrecipitationIn,Events,Conditions,WindDirDegrees,DateUTC
12:00 AM,73.4,37.4,27,30.04,-9999.0,SSW,3.5,-,N/A,,Unknown,210,2013-03-02 22:00:00
1:00 AM,71.6,39.2,31,30.06,-9999.0,SSW,3.5,-,N/A,,Clear,210,2013-03-02 23:00:00
2:00 AM,71,36,18,,25,WSW,3.5,,,,,240,2013-03-03 00:00:00
2:00 AM,69.8,35.6,28,30.04,-9999.0,WSW,2.3,-,N/A,,Clear,240,2013-03-03 00:00:00
3:00 AM,69.8,33.8,27,30.04,-9999.0,Calm,Calm,-,N/A,,Clear,0,2013-03-03 01:00:00
4:00 AM,69.8,35.6,28,30.04,-9999.0,Calm,Calm,-,N/A,,Clear,0,2013-03-03 02:00:00
5:00 AM,68,35,19,,25,North,4.6,,,,,10,2013-03-03 03:00:00
5:00 AM,66.2,33.8,30,30.06,-9999.0,North,3.5,-,N/A,,Clear,10,2013-03-03 03:00:00
6:00 AM,68.0,37.4,33,30.06,-9999.0,NNE,6.9,-,N/A,,Clear,30,2013-03-03 04:00:00
7:00 AM,69.8,39.2,33,30.09,-9999.0,North,5.8,-,N/A,,Clear,10,2013-03-03 05:00:00
7:16 AM,73.4,41.0,31,30.09,-9999.0,NNE,5.8,-,N/A,,Clear,20,2013-03-03 05:16:00
7:46 AM,78.8,44.6,30,30.12,-9999.0,NNE,3.5,-,N/A,,Clear,30,2013-03-03 05:46:00
8:00 AM,81,47,20,,25,NNE,8.1,,,,,20,2013-03-03 06:00:00
8:00 AM,80.6,46.4,30,30.12,-9999.0,NNE,8.1,-,N/A,,Clear,20,2013-03-03 06:00:00
9:00 AM,84.2,48.2,29,30.12,-9999.0,North,18.4,-,N/A,,Clear,360,2013-03-03 07:00:00
10:00 AM,87.8,50.0,27,30.12,-9999.0,North,17.3,-,N/A,,Clear,360,2013-03-03 08:00:00
10:39 AM,91.4,48.2,23,30.12,-9999.0,North,15.0,-,N/A,,Clear,360,2013-03-03 08:39:00
11:00 AM,93,49,14,,25,North,13.8,,,,,0,2013-03-03 09:00:00
11:00 AM,91.4,48.2,23,30.12,-9999.0,North,12.7,-,N/A,,Clear,360,2013-03-03 09:00:00
12:00 PM,95.0,46.4,19,30.09,-9999.0,North,10.4,-,N/A,,Clear,10,2013-03-03 10:00:00
1:00 PM,96.8,41.0,15,30.09,6.2,North,9.2,-,N/A,,Partly Cloudy,10,2013-03-03 11:00:00
2:00 PM,98,40,7,,25,NNE,6.9,,,,Scattered Clouds,20,2013-03-03 12:00:00
3:00 PM,96.8,39.2,14,30.04,6.2,NNE,6.9,-,N/A,,Partly Cloudy,20,2013-03-03 13:00:00
4:00 PM,98.6,37.4,12,30.04,6.2,WNW,4.6,-,N/A,,Partly Cloudy,290,2013-03-03 14:00:00
5:00 PM,100,39,6,,25,NE,5.8,,,,Scattered Clouds,40,2013-03-03 15:00:00
5:00 PM,98.6,37.4,12,30.01,6.2,NE,4.6,-,N/A,,Partly Cloudy,40,2013-03-03 15:00:00
6:00 PM,96.8,39.2,14,30.01,6.2,NNE,3.5,-,N/A,,Partly Cloudy,30,2013-03-03 16:00:00
7:00 PM,95.0,39.2,14,30.01,6.2,ESE,4.6,-,N/A,,Partly Cloudy,110,2013-03-03 17:00:00
8:00 PM,90,40,10,,25,East,3.5,,,,Scattered Clouds,80,2013-03-03 18:00:00
8:00 PM,89.6,39.2,17,30.04,6.2,East,2.3,-,N/A,,Partly Cloudy,80,2013-03-03 18:00:00
9:00 PM,87.8,37.4,17,30.04,-9999.0,East,1.2,-,N/A,,Unknown,90,2013-03-03 19:00:00
10:00 PM,84.2,39.2,20,30.06,-9999.0,NNE,4.6,-,N/A,,Unknown,30,2013-03-03 20:00:00
11:00 PM,81,41,15,,,North,6.9,,,,,350,2013-03-03 21:00:00
11:00 PM,80.6,41.0,24,30.06,-9999.0,North,5.8,-,N/A,,Unknown,350,2013-03-03 21:00:00